Time,TemperatureF,DewpointF,PressureIn,WindDirection,WindDirectionDegrees,WindSpeedMPH,WindSpeedGustMPH,Humidity,HourlyPrecipIn,Conditions,Clouds,dailyrainin,SoftwareType,DateUTC
2013-07-18 00:03:00,75.8,68.8,30.22,SW,232,0.0,0.0,79,0.00,FEW,FEW,0.00,WeatherDisplay:10.37,2013-07-18 05:03:00,
2013-07-18 00:09:00,75.4,68.5,30.22,SSW,198,0.0,0.0,79,0.00,FEW,FEW,0.00,WeatherDisplay:10.37,2013-07-18 05:09:00,
2013-07-18 00:15:00,75.2,68.6,30.22,SSE,166,0.0,0.0,80,0.00,FEW,FEW,0.00,WeatherDisplay:10.37,2013-07-18 05:15:00,
2013-07-18 00:21:00,75.1,68.5,30.22,SE,139,0.0,0.0,80,0.00,FEW,FEW,0.00,WeatherDisplay:10.37,2013-07-18 05:21:00,
2013-07-18 00:27:00,74.7,68.4,30.22,SE,139,0.0,0.0,81,0.00,FEW,FEW,0.00,WeatherDisplay:10.37,2013-07-18 05:27:00,
2013-07-18 00:33:00,74.5,68.2,30.22,SSE,160,0.0,0.0,81,0.00,FEW,FEW,0.00,WeatherDisplay:10.37,2013-07-18 05:33:00,
2013-07-18 00:39:00,74.3,68.0,30.21,SE,146,0.0,0.0,81,0.00,FEW,FEW,0.00,WeatherDisplay:10.37,2013-07-18 05:39:00,
2013-07-18 00:45:00,74.2,68.3,30.21,SSW,193,0.0,0.0,82,0.00,FEW,FEW,0.00,WeatherDisplay:10.37,2013-07-18 05:45:00,
2013-07-18 00:51:00,74.0,68.1,30.22,SSE,151,0.0,0.0,82,0.00,FEW,FEW,0.00,WeatherDisplay:10.37,2013-07-18 05:51:00,
2013-07-18 00:57:00,73.8,67.9,30.22,SSE,148,0.0,0.0,82,0.00,FEW,FEW,0.00,WeatherDisplay:10.37,2013-07-18 05:57:00,
2013-07-18 01:03:00,73.8,68.6,30.21,SSE,150,0.0,0.0,84,0.00,SCT,SCT,0.00,WeatherDisplay:10.37,2013-07-18 06:03:00,
2013-07-18 01:09:00,73.6,68.4,30.21,SSW,199,0.0,0.0,84,0.00,SCT,SCT,0.00,WeatherDisplay:10.37,2013-07-18 06:09:00,
2013-07-18 01:15:00,73.3,68.1,30.21,SSE,168,0.0,0.0,84,0.00,SCT,SCT,0.00,WeatherDisplay:10.37,2013-07-18 06:15:00,
2013-07-18 01:21:00,73.1,68.0,30.21,SE,133,0.0,0.0,84,0.00,SCT,SCT,0.00,WeatherDisplay:10.37,2013-07-18 06:21:00,
2013-07-18 01:27:00,72.8,68.0,30.21,South,179,0.0,0.0,85,0.00,SCT,SCT,0.00,WeatherDisplay:10.37,2013-07-18 06:27:00,
2013-07-18 01:33:00,72.7,67.9,30.21,SSE,166,0.0,0.0,85,0.00,SCT,SCT,0.00,WeatherDisplay:10.37,2013-07-18 06:33:00,
2013-07-18 01:39:00,72.5,67.7,30.21,ESE,106,0.0,0.0,85,0.00,SCT,SCT,0.00,WeatherDisplay:10.37,2013-07-18 06:39:00,
2013-07-18 01:45:00,72.2,67.4,30.21,ESE,104,0.0,0.0,85,0.00,SCT,SCT,0.00,WeatherDisplay:10.37,2013-07-18 06:45:00,
2013-07-18 01:51:00,72.1,67.7,30.20,ESE,117,0.0,0.0,86,0.00,SCT,SCT,0.00,WeatherDisplay:10.37,2013-07-18 06:51:00,
2013-07-18 01:57:00,71.8,67.3,30.20,SSE,164,0.0,0.0,86,0.00,SCT,SCT,0.00,WeatherDisplay:10.37,2013-07-18 06:57:00,
2013-07-18 02:03:00,71.6,67.5,30.20,West,273,0.0,0.0,87,0.00,FEW,FEW,0.00,WeatherDisplay:10.37,2013-07-18 07:03:00,
2013-07-18 02:09:00,71.6,67.5,30.20,NW,308,0.0,0.0,87,0.00,FEW,FEW,0.00,WeatherDisplay:10.37,2013-07-18 07:09:00,
2013-07-18 02:15:00,71.4,67.3,30.20,NNE,26,0.0,0.0,87,0.00,FEW,FEW,0.00,WeatherDisplay:10.37,2013-07-18 07:15:00,
2013-07-18 02:21:00,71.1,67.3,30.20,ENE,67,0.0,0.0,88,0.00,FEW,FEW,0.00,WeatherDisplay:10.37,2013-07-18 07:21:00,
2013-07-18 02:27:00,71.1,67.3,30.20,ENE,67,0.0,0.0,88,0.00,FEW,FEW,0.00,WeatherDisplay:10.37,2013-07-18 07:27:00,
2013-07-18 02:33:00,70.9,67.1,30.20,ENE,67,0.0,0.0,88,0.00,FEW,FEW,0.00,WeatherDisplay:10.37,2013-07-18 07:33:00,
2013-07-18 02:39:00,70.7,66.9,30.20,ENE,67,0.0,0.0,88,0.00,FEW,FEW,0.00,WeatherDisplay:10.37,2013-07-18 07:39:00,
2013-07-18 02:45:00,70.6,67.2,30.20,ENE,67,0.0,0.0,89,0.00,FEW,FEW,0.00,WeatherDisplay:10.37,2013-07-18 07:45:00,
2013-07-18 02:51:00,70.4,67.0,30.21,ENE,67,0.0,0.0,89,0.00,FEW,FEW,0.00,WeatherDisplay:10.37,2013-07-18 07:51:00,
2013-07-18 02:57:00,70.4,67.0,30.21,ENE,67,0.0,0.0,89,0.00,FEW,FEW,0.00,WeatherDisplay:10.37,2013-07-18 07:57:00,
2013-07-18 03:03:00,70.2,66.8,30.20,ENE,59,0.0,0.0,89,0.00,FEW,FEW,0.00,WeatherDisplay:10.37,2013-07-18 08:03:00,
2013-07-18 03:09:00,70.0,66.6,30.20,NE,56,0.0,0.0,89,0.00,FEW,FEW,0.00,WeatherDisplay:10.37,2013-07-18 08:09:00,
2013-07-18 03:15:00,70.0,66.6,30.20,ENE,69,0.0,0.0,89,0.00,FEW,FEW,0.00,WeatherDisplay:10.37,2013-07-18 08:15:00,
2013-07-18 03:21:00,69.8,67.0,30.20,SSW,198,0.0,0.0,91,0.00,FEW,FEW,0.00,WeatherDisplay:10.37,2013-07-18 08:21:00,
2013-07-18 03:27:00,69.8,67.0,30.20,East,101,0.0,0.0,91,0.00,FEW,FEW,0.00,WeatherDisplay:10.37,2013-07-18 08:27:00,
2013-07-18 03:33:00,69.8,67.0,30.20,ENE,67,0.0,0.0,91,0.00,FEW,FEW,0.00,WeatherDisplay:10.37,2013-07-18 08:33:00,
2013-07-18 03:39:00,69.8,67.0,30.20,ENE,67,0.0,0.0,91,0.00,FEW,FEW,0.00,WeatherDisplay:10.37,2013-07-18 08:39:00,
2013-07-18 03:45:00,69.8,67.0,30.20,ENE,67,0.0,0.0,91,0.00,FEW,FEW,0.00,WeatherDisplay:10.37,2013-07-18 08:45:00,
2013-07-18 03:51:00,69.8,67.0,30.20,ENE,67,0.0,0.0,91,0.00,FEW,FEW,0.00,WeatherDisplay:10.37,2013-07-18 08:51:00,
2013-07-18 03:57:00,69.8,67.0,30.20,ENE,67,0.0,0.0,91,0.00,FEW,FEW,0.00,WeatherDisplay:10.37,2013-07-18 08:57:00,
2013-07-18 04:03:00,69.8,67.0,30.20,ENE,67,0.0,0.0,91,0.00,FEW,FEW,0.00,WeatherDisplay:10.37,2013-07-18 09:03:00,
2013-07-18 04:09:00,69.8,67.0,30.20,ENE,67,0.0,0.0,91,0.00,FEW,FEW,0.00,WeatherDisplay:10.37,2013-07-18 09:09:00,
2013-07-18 04:15:00,69.8,67.0,30.20,ENE,67,0.0,0.0,91,0.00,FEW,FEW,0.00,WeatherDisplay:10.37,2013-07-18 09:15:00,
2013-07-18 04:21:00,69.8,67.0,30.20,ENE,67,0.0,0.0,91,0.00,FEW,FEW,0.00,WeatherDisplay:10.37,2013-07-18 09:21:00,
2013-07-18 04:27:00,69.8,67.0,30.20,ENE,67,0.0,0.0,91,0.00,FEW,FEW,0.00,WeatherDisplay:10.37,2013-07-18 09:27:00,
2013-07-18 04:33:00,69.8,67.0,30.20,ENE,67,0.0,0.0,91,0.00,FEW,FEW,0.00,WeatherDisplay:10.37,2013-07-18 09:33:00,
2013-07-18 04:39:00,69.8,67.0,30.20,ENE,67,0.0,0.0,91,0.00,FEW,FEW,0.00,WeatherDisplay:10.37,2013-07-18 09:39:00,
2013-07-18 04:45:00,69.8,67.0,30.20,ENE,67,0.0,0.0,91,0.00,FEW,FEW,0.00,WeatherDisplay:10.37,2013-07-18 09:45:00,
2013-07-18 04:51:00,69.8,67.0,30.20,ENE,67,0.0,0.0,91,0.00,FEW,FEW,0.00,WeatherDisplay:10.37,2013-07-18 09:51:00,
2013-07-18 04:57:00,69.8,67.0,30.20,ENE,67,0.0,0.0,91,0.00,FEW,FEW,0.00,WeatherDisplay:10.37,2013-07-18 09:57:00,
2013-07-18 05:03:00,69.8,67.0,30.20,ENE,67,0.0,0.0,91,0.00,FEW,FEW,0.00,WeatherDisplay:10.37,2013-07-18 10:03:00,
2013-07-18 05:09:00,69.8,67.0,30.20,ENE,67,0.0,0.0,91,0.00,FEW,FEW,0.00,WeatherDisplay:10.37,2013-07-18 10:09:00,
2013-07-18 05:15:00,69.8,67.0,30.20,ENE,67,0.0,0.0,91,0.00,FEW,FEW,0.00,WeatherDisplay:10.37,2013-07-18 10:15:00,
2013-07-18 05:21:00,69.8,67.0,30.20,ENE,67,0.0,0.0,91,0.00,FEW,FEW,0.00,WeatherDisplay:10.37,2013-07-18 10:21:00,
2013-07-18 05:27:00,69.8,67.0,30.20,ENE,67,0.0,0.0,91,0.00,FEW,FEW,0.00,WeatherDisplay:10.37,2013-07-18 10:27:00,
2013-07-18 05:33:00,69.8,67.0,30.20,ENE,67,0.0,0.0,91,0.00,FEW,FEW,0.00,WeatherDisplay:10.37,2013-07-18 10:33:00,
2013-07-18 05:39:00,69.8,67.0,30.20,ENE,67,0.0,0.0,91,0.00,FEW,FEW,0.00,WeatherDisplay:10.37,2013-07-18 10:39:00,
2013-07-18 05:45:00,69.8,67.0,30.20,ENE,67,0.0,0.0,91,0.00,FEW,FEW,0.00,WeatherDisplay:10.37,2013-07-18 10:45:00,
2013-07-18 05:51:00,69.8,67.0,30.20,ENE,67,0.0,0.0,91,0.00,FEW,FEW,0.00,WeatherDisplay:10.37,2013-07-18 10:51:00,
2013-07-18 05:57:00,69.8,67.0,30.20,ENE,67,0.0,0.0,91,0.00,FEW,FEW,0.00,WeatherDisplay:10.37,2013-07-18 10:57:00,
2013-07-18 06:03:00,69.8,67.0,30.20,ENE,67,0.0,0.0,91,0.00,SCT,SCT,0.00,WeatherDisplay:10.37,2013-07-18 11:03:00,
2013-07-18 06:09:00,69.8,67.0,30.20,ENE,67,0.0,0.0,91,0.00,SCT,SCT,0.00,WeatherDisplay:10.37,2013-07-18 11:09:00,
2013-07-18 06:15:00,69.8,67.0,30.20,ENE,67,0.0,0.0,91,0.00,SCT,SCT,0.00,WeatherDisplay:10.37,2013-07-18 11:15:00,
2013-07-18 06:21:00,69.8,67.0,30.20,ENE,67,0.0,0.0,91,0.00,SCT,SCT,0.00,WeatherDisplay:10.37,2013-07-18 11:21:00,
2013-07-18 06:27:00,69.8,67.0,30.20,ENE,67,0.0,0.0,91,0.00,SCT,SCT,0.00,WeatherDisplay:10.37,2013-07-18 11:27:00,
2013-07-18 06:33:00,69.8,67.0,30.20,ENE,67,0.0,0.0,91,0.00,SCT,SCT,0.00,WeatherDisplay:10.37,2013-07-18 11:33:00,
2013-07-18 06:39:00,69.8,67.0,30.20,ENE,67,0.0,0.0,91,0.00,SCT,SCT,0.00,WeatherDisplay:10.37,2013-07-18 11:39:00,
2013-07-18 06:45:00,69.8,67.0,30.20,ENE,67,0.0,0.0,91,0.00,SCT,SCT,0.00,WeatherDisplay:10.37,2013-07-18 11:45:00,
2013-07-18 06:51:00,69.8,67.0,30.20,ENE,67,0.0,0.0,91,0.00,SCT,SCT,0.00,WeatherDisplay:10.37,2013-07-18 11:51:00,
2013-07-18 06:57:00,69.8,67.0,30.20,ENE,67,0.0,0.0,91,0.00,SCT,SCT,0.00,WeatherDisplay:10.37,2013-07-18 11:57:00,
2013-07-18 07:03:00,69.8,67.0,30.20,ENE,67,0.0,0.0,91,0.00,SCT,SCT,0.00,WeatherDisplay:10.37,2013-07-18 12:03:00,
2013-07-18 07:09:00,69.8,67.0,30.20,ENE,67,0.0,0.0,91,0.00,SCT,SCT,0.00,WeatherDisplay:10.37,2013-07-18 12:09:00,
2013-07-18 07:15:00,69.8,67.0,30.20,ENE,67,0.0,0.0,91,0.00,SCT,SCT,0.00,WeatherDisplay:10.37,2013-07-18 12:15:00,
2013-07-18 07:21:00,69.8,67.0,30.20,ENE,67,0.0,0.0,91,0.00,SCT,SCT,0.00,WeatherDisplay:10.37,2013-07-18 12:21:00,
2013-07-18 07:27:00,69.8,67.0,30.20,ENE,67,0.0,0.0,91,0.00,SCT,SCT,0.00,WeatherDisplay:10.37,2013-07-18 12:27:00,
2013-07-18 07:33:00,69.8,67.0,30.20,ENE,67,0.0,0.0,91,0.00,SCT,SCT,0.00,WeatherDisplay:10.37,2013-07-18 12:33:00,
2013-07-18 07:39:00,69.8,67.0,30.20,ENE,67,0.0,0.0,91,0.00,SCT,SCT,0.00,WeatherDisplay:10.37,2013-07-18 12:39:00,
2013-07-18 07:45:00,69.8,67.0,30.20,ENE,67,0.0,0.0,91,0.00,SCT,SCT,0.00,WeatherDisplay:10.37,2013-07-18 12:45:00,
2013-07-18 07:51:00,69.8,67.0,30.20,ENE,67,0.0,0.0,91,0.00,SCT,SCT,0.00,WeatherDisplay:10.37,2013-07-18 12:51:00,
2013-07-18 07:57:00,69.8,67.0,30.20,ENE,67,0.0,0.0,91,0.00,SCT,SCT,0.00,WeatherDisplay:10.37,2013-07-18 12:57:00,
2013-07-18 08:12:00,72.0,69.2,30.20,NE,42,0.0,0.0,91,0.00,SCT,SCT,0.00,WeatherDisplay:10.37,2013-07-18 13:12:00,
2013-07-18 08:18:00,72.4,69.6,30.20,South,190,0.0,0.0,91,0.00,SCT,SCT,0.00,WeatherDisplay:10.37,2013-07-18 13:18:00,
2013-07-18 08:24:00,73.0,69.5,30.20,South,176,0.0,0.0,89,0.00,SCT,SCT,0.00,WeatherDisplay:10.37,2013-07-18 13:24:00,
2013-07-18 08:30:00,73.6,70.2,30.20,WSW,257,0.0,0.0,89,0.00,SCT,SCT,0.00,WeatherDisplay:10.37,2013-07-18 13:30:00,
2013-07-18 08:36:00,74.5,70.7,30.20,WSW,246,0.0,0.0,88,0.00,SCT,SCT,0.00,WeatherDisplay:10.37,2013-07-18 13:36:00,
2013-07-18 08:42:00,75.0,70.9,30.20,SSW,204,0.0,7.0,87,0.00,SCT,SCT,0.00,WeatherDisplay:10.37,2013-07-18 13:42:00,
2013-07-18 08:48:00,76.0,71.5,30.20,SSW,203,0.0,0.0,86,0.00,SCT,SCT,0.00,WeatherDisplay:10.37,2013-07-18 13:48:00,
2013-07-18 08:54:00,76.1,71.2,30.20,WSW,239,5.0,7.0,85,0.00,SCT,SCT,0.00,WeatherDisplay:10.37,2013-07-18 13:54:00,
2013-07-18 09:00:00,76.7,71.8,30.20,South,185,2.0,5.0,85,0.00,SCT,SCT,0.00,WeatherDisplay:10.37,2013-07-18 14:00:00,
2013-07-18 09:06:00,77.2,71.9,30.21,SSW,211,2.0,8.0,84,0.00,FEW,FEW,0.00,WeatherDisplay:10.37,2013-07-18 14:06:00,
2013-07-18 09:12:00,77.8,71.5,30.21,SSW,205,7.0,9.0,81,0.00,FEW,FEW,0.00,WeatherDisplay:10.37,2013-07-18 14:12:00,
2013-07-18 09:18:00,78.3,71.2,30.20,SSW,193,5.0,7.0,79,0.00,FEW,FEW,0.00,WeatherDisplay:10.37,2013-07-18 14:18:00,
2013-07-18 09:24:00,78.7,71.2,30.20,South,182,1.0,7.0,78,0.00,FEW,FEW,0.00,WeatherDisplay:10.37,2013-07-18 14:24:00,
2013-07-18 09:30:00,79.2,71.3,30.19,South,177,7.0,8.0,77,0.00,FEW,FEW,0.00,WeatherDisplay:10.37,2013-07-18 14:30:00,
2013-07-18 09:36:00,79.8,71.1,30.19,SSW,196,6.0,10.0,75,0.00,FEW,FEW,0.00,WeatherDisplay:10.37,2013-07-18 14:36:00,
2013-07-18 09:42:00,80.5,71.0,30.19,SW,231,7.0,10.0,73,0.00,FEW,FEW,0.00,WeatherDisplay:10.37,2013-07-18 14:42:00,
2013-07-18 09:48:00,81.0,71.5,30.19,West,269,8.0,12.0,73,0.00,FEW,FEW,0.00,WeatherDisplay:10.37,2013-07-18 14:48:00,
2013-07-18 09:54:00,81.4,71.1,30.19,WSW,238,6.0,12.0,71,0.00,FEW,FEW,0.00,WeatherDisplay:10.37,2013-07-18 14:54:00,
2013-07-18 10:00:00,82.0,71.3,30.19,South,170,7.0,9.0,70,0.00,FEW,FEW,0.00,WeatherDisplay:10.37,2013-07-18 15:00:00,
2013-07-18 10:06:00,82.0,71.3,30.19,SSW,205,5.0,7.0,70,0.00,FEW,FEW,0.00,WeatherDisplay:10.37,2013-07-18 15:06:00,
2013-07-18 10:12:00,82.4,70.7,30.19,SW,223,2.0,10.0,68,0.00,FEW,FEW,0.00,WeatherDisplay:10.37,2013-07-18 15:12:00,
2013-07-18 10:18:00,83.2,71.5,30.19,SSW,194,7.0,9.0,68,0.00,FEW,FEW,0.00,WeatherDisplay:10.37,2013-07-18 15:18:00,
2013-07-18 10:24:00,83.5,71.3,30.19,SSW,204,2.0,8.0,67,0.00,FEW,FEW,0.00,WeatherDisplay:10.37,2013-07-18 15:24:00,
2013-07-18 10:30:00,83.9,71.3,30.19,SSW,200,6.0,8.0,66,0.00,FEW,FEW,0.00,WeatherDisplay:10.37,2013-07-18 15:30:00,
2013-07-18 10:36:00,84.8,71.2,30.18,South,170,6.0,10.0,64,0.00,FEW,FEW,0.00,WeatherDisplay:10.37,2013-07-18 15:36:00,
2013-07-18 10:42:00,84.1,69.7,30.18,South,176,8.0,12.0,62,0.00,FEW,FEW,0.00,WeatherDisplay:10.37,2013-07-18 15:42:00,
2013-07-18 10:48:00,84.2,69.8,30.18,South,190,6.0,13.0,62,0.00,FEW,FEW,0.00,WeatherDisplay:10.37,2013-07-18 15:48:00,
2013-07-18 10:54:00,84.1,69.7,30.18,SSE,148,7.0,12.0,62,0.00,FEW,FEW,0.00,WeatherDisplay:10.37,2013-07-18 15:54:00,
2013-07-18 11:00:00,83.6,69.2,30.18,SE,143,10.0,13.0,62,0.00,FEW,FEW,0.00,WeatherDisplay:10.37,2013-07-18 16:00:00,
2013-07-18 11:06:00,83.7,69.7,30.18,South,187,3.0,6.0,63,0.00,SCT,SCT,0.00,WeatherDisplay:10.37,2013-07-18 16:06:00,
2013-07-18 11:12:00,83.2,69.8,30.18,West,264,5.0,8.0,64,0.00,SCT,SCT,0.00,WeatherDisplay:10.37,2013-07-18 16:12:00,
2013-07-18 11:18:00,83.9,69.5,30.17,WNW,282,10.0,14.0,62,0.00,SCT,SCT,0.00,WeatherDisplay:10.37,2013-07-18 16:18:00,
2013-07-18 11:24:00,83.2,69.7,30.17,WSW,245,6.0,13.0,64,0.00,SCT,SCT,0.00,WeatherDisplay:10.37,2013-07-18 16:24:00,
2013-07-18 11:27:00,83.2,69.7,30.18,SW,230,3.0,12.0,64,0.00,SCT,SCT,0.00,WeatherDisplay:10.37,2013-07-18 16:27:00,
2013-07-18 11:33:00,83.5,69.1,30.18,SW,217,8.0,9.0,62,0.00,SCT,SCT,0.00,WeatherDisplay:10.37,2013-07-18 16:33:00,
2013-07-18 11:39:00,83.3,69.4,30.17,South,181,3.0,7.0,63,0.00,SCT,SCT,0.00,WeatherDisplay:10.37,2013-07-18 16:39:00,
2013-07-18 11:45:00,84.8,69.3,30.17,South,175,7.0,10.0,60,0.00,SCT,SCT,0.00,WeatherDisplay:10.37,2013-07-18 16:45:00,
2013-07-18 11:51:00,83.7,69.3,30.17,South,176,9.0,13.0,62,0.00,SCT,SCT,0.00,WeatherDisplay:10.37,2013-07-18 16:51:00,
2013-07-18 11:57:00,84.4,68.5,30.17,SSW,206,8.0,16.0,59,0.00,SCT,SCT,0.00,WeatherDisplay:10.37,2013-07-18 16:57:00,
2013-07-18 12:03:00,84.6,68.7,30.16,South,186,6.0,12.0,59,0.00,BKN,BKN,0.00,WeatherDisplay:10.37,2013-07-18 17:03:00,
2013-07-18 12:09:00,85.1,68.7,30.16,South,180,7.0,13.0,58,0.00,BKN,BKN,0.00,WeatherDisplay:10.37,2013-07-18 17:09:00,
2013-07-18 12:15:00,86.1,69.1,30.16,SSW,206,9.0,16.0,57,0.00,BKN,BKN,0.00,WeatherDisplay:10.37,2013-07-18 17:15:00,
2013-07-18 12:21:00,86.0,69.0,30.16,South,172,8.0,12.0,57,0.00,BKN,BKN,0.00,WeatherDisplay:10.37,2013-07-18 17:21:00,
2013-07-18 12:27:00,86.8,69.2,30.16,SSE,166,9.0,16.0,56,0.00,BKN,BKN,0.00,WeatherDisplay:10.37,2013-07-18 17:27:00,
2013-07-18 12:33:00,87.5,68.8,30.16,SSW,205,9.0,12.0,54,0.00,BKN,BKN,0.00,WeatherDisplay:10.37,2013-07-18 17:33:00,
2013-07-18 12:39:00,86.4,68.4,30.15,SSW,210,9.0,13.0,55,0.00,BKN,BKN,0.00,WeatherDisplay:10.37,2013-07-18 17:39:00,
2013-07-18 12:45:00,86.2,68.1,30.15,SSW,204,9.0,13.0,55,0.00,BKN,BKN,0.00,WeatherDisplay:10.37,2013-07-18 17:45:00,
2013-07-18 12:51:00,86.2,68.1,30.15,SW,221,7.0,7.0,55,0.00,BKN,BKN,0.00,WeatherDisplay:10.37,2013-07-18 17:51:00,
2013-07-18 12:57:00,87.1,68.4,30.15,SW,233,6.0,9.0,54,0.00,BKN,BKN,0.00,WeatherDisplay:10.37,2013-07-18 17:57:00,
2013-07-18 13:03:00,88.4,68.5,30.15,SSW,212,9.0,15.0,52,0.00,BKN,BKN,0.00,WeatherDisplay:10.37,2013-07-18 18:03:00,
2013-07-18 13:09:00,88.9,67.9,30.15,South,185,12.0,15.0,50,0.00,BKN,BKN,0.00,WeatherDisplay:10.37,2013-07-18 18:09:00,
2013-07-18 13:15:00,88.5,68.6,30.14,South,174,7.0,10.0,52,0.00,BKN,BKN,0.00,WeatherDisplay:10.37,2013-07-18 18:15:00,
2013-07-18 13:21:00,88.6,68.7,30.14,WSW,241,7.0,14.0,52,0.00,BKN,BKN,0.00,WeatherDisplay:10.37,2013-07-18 18:21:00,
2013-07-18 13:27:00,88.7,68.2,30.14,SW,214,8.0,14.0,51,0.00,BKN,BKN,0.00,WeatherDisplay:10.37,2013-07-18 18:27:00,
2013-07-18 13:33:00,88.6,68.1,30.14,SW,218,8.0,9.0,51,0.00,BKN,BKN,0.00,WeatherDisplay:10.37,2013-07-18 18:33:00,
2013-07-18 13:39:00,86.8,67.7,30.14,South,178,8.0,12.0,53,0.00,BKN,BKN,0.00,WeatherDisplay:10.37,2013-07-18 18:39:00,
2013-07-18 13:45:00,88.2,68.4,30.14,South,186,6.0,10.0,52,0.00,BKN,BKN,0.00,WeatherDisplay:10.37,2013-07-18 18:45:00,
2013-07-18 13:51:00,87.9,68.1,30.13,SW,223,8.0,11.0,52,0.00,BKN,BKN,0.00,WeatherDisplay:10.37,2013-07-18 18:51:00,
2013-07-18 13:57:00,87.0,67.2,30.13,SSW,207,8.0,12.0,52,0.00,BKN,BKN,0.00,WeatherDisplay:10.37,2013-07-18 18:57:00,
2013-07-18 14:03:00,88.0,67.6,30.12,SSW,204,6.0,8.0,51,0.00,BKN,BKN,0.00,WeatherDisplay:10.37,2013-07-18 19:03:00,
2013-07-18 14:09:00,87.9,67.5,30.12,SSE,160,6.0,9.0,51,0.00,BKN,BKN,0.00,WeatherDisplay:10.37,2013-07-18 19:09:00,
2013-07-18 14:15:00,89.6,66.7,30.12,SE,135,12.0,16.0,47,0.00,BKN,BKN,0.00,WeatherDisplay:10.37,2013-07-18 19:15:00,
2013-07-18 14:21:00,89.5,67.3,30.12,SW,234,5.0,8.0,48,0.00,BKN,BKN,0.00,WeatherDisplay:10.37,2013-07-18 19:21:00,
2013-07-18 14:27:00,88.3,67.3,30.11,SW,219,5.0,14.0,50,0.00,BKN,BKN,0.00,WeatherDisplay:10.37,2013-07-18 19:27:00,
2013-07-18 14:33:00,87.4,67.0,30.11,SSW,192,3.0,13.0,51,0.00,BKN,BKN,0.00,WeatherDisplay:10.37,2013-07-18 19:33:00,
2013-07-18 14:39:00,88.7,67.6,30.11,SSW,194,12.0,13.0,50,0.00,BKN,BKN,0.00,WeatherDisplay:10.37,2013-07-18 19:39:00,
2013-07-18 14:45:00,89.2,67.6,30.11,SSW,192,7.0,10.0,49,0.00,BKN,BKN,0.00,WeatherDisplay:10.37,2013-07-18 19:45:00,
2013-07-18 14:51:00,89.9,67.0,30.11,SSW,213,8.0,12.0,47,0.00,BKN,BKN,0.00,WeatherDisplay:10.37,2013-07-18 19:51:00,
2013-07-18 14:57:00,88.6,67.0,30.11,South,179,7.0,10.0,49,0.00,BKN,BKN,0.00,WeatherDisplay:10.37,2013-07-18 19:57:00,
2013-07-18 15:03:00,91.2,67.6,30.10,SSW,198,10.0,17.0,46,0.00,BKN,BKN,0.00,WeatherDisplay:10.37,2013-07-18 20:03:00,
2013-07-18 15:09:00,90.0,67.1,30.10,SSW,203,6.0,9.0,47,0.00,BKN,BKN,0.00,WeatherDisplay:10.37,2013-07-18 20:09:00,
2013-07-18 15:15:00,89.7,66.8,30.09,South,175,7.0,17.0,47,0.00,BKN,BKN,0.00,WeatherDisplay:10.37,2013-07-18 20:15:00,
2013-07-18 15:21:00,89.5,65.3,30.09,SSE,149,14.0,18.0,45,0.00,BKN,BKN,0.00,WeatherDisplay:10.37,2013-07-18 20:21:00,
2013-07-18 15:27:00,90.8,66.5,30.09,SSE,147,12.0,15.0,45,0.00,BKN,BKN,0.00,WeatherDisplay:10.37,2013-07-18 20:27:00,
2013-07-18 15:33:00,90.6,67.0,30.09,South,169,9.0,15.0,46,0.00,BKN,BKN,0.00,WeatherDisplay:10.37,2013-07-18 20:33:00,
2013-07-18 15:39:00,91.7,66.7,30.08,SSE,159,7.0,12.0,44,0.00,BKN,BKN,0.00,WeatherDisplay:10.37,2013-07-18 20:39:00,
2013-07-18 15:45:00,91.9,66.9,30.08,SSW,193,9.0,14.0,44,0.00,BKN,BKN,0.00,WeatherDisplay:10.37,2013-07-18 20:45:00,
2013-07-18 15:51:00,92.6,66.8,30.08,South,183,10.0,11.0,43,0.00,BKN,BKN,0.00,WeatherDisplay:10.37,2013-07-18 20:51:00,
2013-07-18 15:57:00,90.1,65.9,30.08,SSE,158,8.0,12.0,45,0.00,BKN,BKN,0.00,WeatherDisplay:10.37,2013-07-18 20:57:00,
2013-07-18 16:03:00,92.1,67.0,30.08,SSE,152,6.0,8.0,44,0.00,BKN,BKN,0.00,WeatherDisplay:10.37,2013-07-18 21:03:00,
2013-07-18 16:09:00,91.1,66.8,30.08,South,188,7.0,8.0,45,0.00,BKN,BKN,0.00,WeatherDisplay:10.37,2013-07-18 21:09:00,
2013-07-18 16:15:00,92.0,66.9,30.07,South,184,7.0,16.0,44,0.00,BKN,BKN,0.00,WeatherDisplay:10.37,2013-07-18 21:15:00,
2013-07-18 16:21:00,92.4,66.6,30.07,SSW,205,8.0,12.0,43,0.00,BKN,BKN,0.00,WeatherDisplay:10.37,2013-07-18 21:21:00,
2013-07-18 16:27:00,91.3,66.3,30.06,South,174,9.0,20.0,44,0.00,BKN,BKN,0.00,WeatherDisplay:10.37,2013-07-18 21:27:00,
2013-07-18 16:33:00,89.5,65.3,30.06,South,170,9.0,12.0,45,0.00,BKN,BKN,0.00,WeatherDisplay:10.37,2013-07-18 21:33:00,
2013-07-18 16:39:00,90.8,65.2,30.06,South,172,10.0,14.0,43,0.00,BKN,BKN,0.00,WeatherDisplay:10.37,2013-07-18 21:39:00,
2013-07-18 16:45:00,90.5,64.9,30.06,South,187,9.0,14.0,43,0.00,BKN,BKN,0.00,WeatherDisplay:10.37,2013-07-18 21:45:00,
2013-07-18 16:51:00,90.4,65.5,30.06,South,178,8.0,12.0,44,0.00,BKN,BKN,0.00,WeatherDisplay:10.37,2013-07-18 21:51:00,
2013-07-18 16:57:00,90.9,65.9,30.06,SSW,193,8.0,13.0,44,0.00,BKN,BKN,0.00,WeatherDisplay:10.37,2013-07-18 21:57:00,
2013-07-18 17:03:00,90.7,66.4,30.05,SSW,202,8.0,12.0,45,0.00,SCT,SCT,0.00,WeatherDisplay:10.37,2013-07-18 22:03:00,
2013-07-18 17:09:00,89.4,65.2,30.05,SSE,159,8.0,17.0,45,0.00,SCT,SCT,0.00,WeatherDisplay:10.37,2013-07-18 22:09:00,
2013-07-18 17:15:00,91.2,65.6,30.05,SSE,163,9.0,16.0,43,0.00,SCT,SCT,0.00,WeatherDisplay:10.37,2013-07-18 22:15:00,
2013-07-18 17:21:00,90.9,65.3,30.05,South,183,10.0,12.0,43,0.00,SCT,SCT,0.00,WeatherDisplay:10.37,2013-07-18 22:21:00,
2013-07-18 17:27:00,91.6,65.9,30.05,SE,140,6.0,8.0,43,0.00,SCT,SCT,0.00,WeatherDisplay:10.37,2013-07-18 22:27:00,
2013-07-18 17:33:00,91.5,65.2,30.05,South,183,8.0,10.0,42,0.00,SCT,SCT,0.00,WeatherDisplay:10.37,2013-07-18 22:33:00,
2013-07-18 17:39:00,91.0,65.4,30.04,South,188,9.0,13.0,43,0.00,SCT,SCT,0.00,WeatherDisplay:10.37,2013-07-18 22:39:00,
2013-07-18 17:45:00,91.6,65.3,30.04,SSW,207,7.0,9.0,42,0.00,SCT,SCT,0.00,WeatherDisplay:10.37,2013-07-18 22:45:00,
2013-07-18 17:51:00,91.4,65.8,30.04,SSW,206,8.0,12.0,43,0.00,SCT,SCT,0.00,WeatherDisplay:10.37,2013-07-18 22:51:00,
2013-07-18 17:57:00,91.3,65.0,30.04,SW,219,5.0,8.0,42,0.00,SCT,SCT,0.00,WeatherDisplay:10.37,2013-07-18 22:57:00,
2013-07-18 18:03:00,90.0,64.5,30.04,SSW,203,6.0,7.0,43,0.00,SCT,SCT,0.00,WeatherDisplay:10.37,2013-07-18 23:03:00,
2013-07-18 18:09:00,89.7,63.5,30.04,SW,235,6.0,8.0,42,0.00,SCT,SCT,0.00,WeatherDisplay:10.37,2013-07-18 23:09:00,
2013-07-18 18:15:00,89.6,64.1,30.03,SW,224,5.0,6.0,43,0.00,SCT,SCT,0.00,WeatherDisplay:10.37,2013-07-18 23:15:00,
2013-07-18 18:21:00,90.2,63.3,30.03,SSW,205,9.0,13.0,41,0.00,SCT,SCT,0.00,WeatherDisplay:10.37,2013-07-18 23:21:00,
2013-07-18 18:27:00,90.0,63.2,30.03,South,189,7.0,13.0,41,0.00,SCT,SCT,0.00,WeatherDisplay:10.37,2013-07-18 23:27:00,
2013-07-18 18:33:00,90.1,63.2,30.03,SSE,167,6.0,9.0,41,0.00,SCT,SCT,0.00,WeatherDisplay:10.37,2013-07-18 23:33:00,
2013-07-18 18:39:00,90.2,63.3,30.03,South,181,7.0,10.0,41,0.00,SCT,SCT,0.00,WeatherDisplay:10.37,2013-07-18 23:39:00,
2013-07-18 18:45:00,90.6,64.3,30.03,SW,222,7.0,8.0,42,0.00,SCT,SCT,0.00,WeatherDisplay:10.37,2013-07-18 23:45:00,
2013-07-18 18:51:00,90.7,63.8,30.02,WSW,240,3.0,8.0,41,0.00,SCT,SCT,0.00,WeatherDisplay:10.37,2013-07-18 23:51:00,
2013-07-18 18:57:00,90.4,63.5,30.02,SSE,168,8.0,12.0,41,0.00,SCT,SCT,0.00,WeatherDisplay:10.37,2013-07-18 23:57:00,
2013-07-18 19:03:00,90.0,63.8,30.02,SE,130,7.0,7.0,42,0.00,SCT,SCT,0.00,WeatherDisplay:10.37,2013-07-19 00:03:00,
2013-07-18 19:09:00,89.8,63.7,30.02,East,99,8.0,12.0,42,0.00,SCT,SCT,0.00,WeatherDisplay:10.37,2013-07-19 00:09:00,
2013-07-18 19:15:00,89.8,62.9,30.02,SE,140,7.0,10.0,41,0.00,SCT,SCT,0.00,WeatherDisplay:10.37,2013-07-19 00:15:00,
2013-07-18 19:21:00,89.9,63.8,30.02,SSW,203,7.0,8.0,42,0.00,SCT,SCT,0.00,WeatherDisplay:10.37,2013-07-19 00:21:00,
2013-07-18 19:27:00,89.3,63.2,30.02,SSW,199,7.0,8.0,42,0.00,SCT,SCT,0.00,WeatherDisplay:10.37,2013-07-19 00:27:00,
2013-07-18 19:33:00,89.6,63.4,30.02,SSW,192,7.0,10.0,42,0.00,SCT,SCT,0.00,WeatherDisplay:10.37,2013-07-19 00:33:00,
2013-07-18 19:39:00,89.0,62.9,30.02,South,186,5.0,8.0,42,0.00,SCT,SCT,0.00,WeatherDisplay:10.37,2013-07-19 00:39:00,
2013-07-18 19:45:00,88.9,63.5,30.02,SSE,165,6.0,9.0,43,0.00,SCT,SCT,0.00,WeatherDisplay:10.37,2013-07-19 00:45:00,
2013-07-18 19:51:00,88.9,63.5,30.02,SSE,168,5.0,7.0,43,0.00,SCT,SCT,0.00,WeatherDisplay:10.37,2013-07-19 00:51:00,
2013-07-18 19:57:00,88.4,63.7,30.02,South,189,6.0,9.0,44,0.00,SCT,SCT,0.00,WeatherDisplay:10.37,2013-07-19 00:57:00,
2013-07-18 20:03:00,88.2,63.5,30.02,South,171,7.0,12.0,44,0.00,SCT,SCT,0.00,WeatherDisplay:10.37,2013-07-19 01:03:00,
2013-07-18 20:09:00,88.0,64.0,30.02,SSE,151,3.0,5.0,45,0.00,SCT,SCT,0.00,WeatherDisplay:10.37,2013-07-19 01:09:00,
2013-07-18 20:15:00,88.6,64.5,30.02,SSE,150,5.0,7.0,45,0.00,SCT,SCT,0.00,WeatherDisplay:10.37,2013-07-19 01:15:00,
2013-07-18 20:21:00,88.0,64.6,30.02,SSE,147,0.0,0.0,46,0.00,SCT,SCT,0.00,WeatherDisplay:10.37,2013-07-19 01:21:00,
2013-07-18 20:27:00,87.4,64.7,30.02,SE,139,2.0,8.0,47,0.00,SCT,SCT,0.00,WeatherDisplay:10.37,2013-07-19 01:27:00,
2013-07-18 20:33:00,86.9,64.8,30.02,SE,125,2.0,6.0,48,0.00,SCT,SCT,0.00,WeatherDisplay:10.37,2013-07-19 01:33:00,
2013-07-18 20:39:00,86.0,64.0,30.02,SSE,148,5.0,7.0,48,0.00,SCT,SCT,0.00,WeatherDisplay:10.37,2013-07-19 01:39:00,
2013-07-18 20:45:00,85.5,64.1,30.02,SE,144,3.0,6.0,49,0.00,SCT,SCT,0.00,WeatherDisplay:10.37,2013-07-19 01:45:00,
2013-07-18 20:51:00,85.1,64.4,30.02,SSE,157,2.0,7.0,50,0.00,SCT,SCT,0.00,WeatherDisplay:10.37,2013-07-19 01:51:00,
2013-07-18 20:57:00,84.8,64.6,30.02,South,171,5.0,7.0,51,0.00,SCT,SCT,0.00,WeatherDisplay:10.37,2013-07-19 01:57:00,
2013-07-18 21:03:00,84.2,64.1,30.02,South,172,3.0,8.0,51,0.00,FEW,FEW,0.00,WeatherDisplay:10.37,2013-07-19 02:03:00,
2013-07-18 21:09:00,84.0,64.5,30.02,SSE,160,0.0,7.0,52,0.00,FEW,FEW,0.00,WeatherDisplay:10.37,2013-07-19 02:09:00,
2013-07-18 21:15:00,83.3,64.4,30.02,South,171,0.0,0.0,53,0.00,FEW,FEW,0.00,WeatherDisplay:10.37,2013-07-19 02:15:00,
2013-07-18 21:21:00,83.0,64.1,30.02,SSE,150,0.0,0.0,53,0.00,FEW,FEW,0.00,WeatherDisplay:10.37,2013-07-19 02:21:00,
2013-07-18 21:27:00,82.6,64.2,30.03,SSE,147,0.0,0.0,54,0.00,FEW,FEW,0.00,WeatherDisplay:10.37,2013-07-19 02:27:00,
2013-07-18 21:33:00,82.2,64.4,30.03,SE,132,0.0,0.0,55,0.00,FEW,FEW,0.00,WeatherDisplay:10.37,2013-07-19 02:33:00,
2013-07-18 21:39:00,81.9,64.1,30.04,SE,142,1.0,4.0,55,0.00,FEW,FEW,0.00,WeatherDisplay:10.37,2013-07-19 02:39:00,
2013-07-18 21:45:00,81.5,64.3,30.04,SE,139,0.0,0.0,56,0.00,FEW,FEW,0.00,WeatherDisplay:10.37,2013-07-19 02:45:00,
2013-07-18 21:51:00,81.2,64.5,30.04,ESE,117,0.0,0.0,57,0.00,FEW,FEW,0.00,WeatherDisplay:10.37,2013-07-19 02:51:00,
2013-07-18 21:57:00,80.9,64.3,30.04,ESE,122,0.0,0.0,57,0.00,FEW,FEW,0.00,WeatherDisplay:10.37,2013-07-19 02:57:00,
2013-07-18 22:03:00,80.6,64.4,30.04,SE,129,0.0,0.0,58,0.00,FEW,FEW,0.00,WeatherDisplay:10.37,2013-07-19 03:03:00,
2013-07-18 22:09:00,80.5,64.3,30.04,SE,141,2.0,5.0,58,0.00,FEW,FEW,0.00,WeatherDisplay:10.37,2013-07-19 03:09:00,
2013-07-18 22:15:00,80.3,64.2,30.05,SSE,147,1.0,7.0,58,0.00,FEW,FEW,0.00,WeatherDisplay:10.37,2013-07-19 03:15:00,
2013-07-18 22:21:00,80.3,64.6,30.05,SE,146,6.0,7.0,59,0.00,FEW,FEW,0.00,WeatherDisplay:10.37,2013-07-19 03:21:00,
2013-07-18 22:27:00,80.1,64.4,30.05,SSE,157,3.0,7.0,59,0.00,FEW,FEW,0.00,WeatherDisplay:10.37,2013-07-19 03:27:00,
2013-07-18 22:33:00,79.9,64.7,30.05,SSE,168,0.0,6.0,60,0.00,FEW,FEW,0.00,WeatherDisplay:10.37,2013-07-19 03:33:00,
2013-07-18 22:39:00,79.7,64.5,30.05,SSE,153,3.0,7.0,60,0.00,FEW,FEW,0.00,WeatherDisplay:10.37,2013-07-19 03:39:00,
2013-07-18 22:45:00,79.4,64.7,30.05,SSE,163,2.0,4.0,61,0.00,FEW,FEW,0.00,WeatherDisplay:10.37,2013-07-19 03:45:00,
2013-07-18 22:51:00,79.2,65.0,30.05,SSE,164,0.0,0.0,62,0.00,FEW,FEW,0.00,WeatherDisplay:10.37,2013-07-19 03:51:00,
2013-07-18 22:57:00,79.0,65.3,30.05,South,180,2.0,6.0,63,0.00,FEW,FEW,0.00,WeatherDisplay:10.37,2013-07-19 03:57:00,
2013-07-18 23:03:00,79.0,65.3,30.05,South,174,2.0,7.0,63,0.00,FEW,FEW,0.00,WeatherDisplay:10.37,2013-07-19 04:03:00,
2013-07-18 23:06:00,78.8,65.1,30.05,South,180,5.0,5.0,63,0.00,FEW,FEW,0.00,WeatherDisplay:10.37,2013-07-19 04:06:00,
2013-07-18 23:12:00,78.8,65.1,30.04,SSE,153,6.0,7.0,63,0.00,FEW,FEW,0.00,WeatherDisplay:10.37,2013-07-19 04:12:00,
2013-07-18 23:15:00,78.7,65.1,30.04,SSE,149,2.0,5.0,63,0.00,FEW,FEW,0.00,WeatherDisplay:10.37,2013-07-19 04:15:00,
2013-07-18 23:21:00,78.5,65.3,30.04,SSE,165,0.0,0.0,64,0.00,FEW,FEW,0.00,WeatherDisplay:10.37,2013-07-19 04:21:00,
2013-07-18 23:24:00,78.3,65.6,30.04,SSE,156,0.0,0.0,65,0.00,FEW,FEW,0.00,WeatherDisplay:10.37,2013-07-19 04:24:00,
2013-07-18 23:30:00,78.1,65.3,30.04,SSE,159,0.0,3.0,65,0.00,FEW,FEW,0.00,WeatherDisplay:10.37,2013-07-19 04:30:00,
2013-07-18 23:36:00,77.9,65.6,30.04,SSE,161,2.0,6.0,66,0.00,FEW,FEW,0.00,WeatherDisplay:10.37,2013-07-19 04:36:00,
2013-07-18 23:42:00,77.8,65.5,30.04,SSE,158,0.0,4.0,66,0.00,FEW,FEW,0.00,WeatherDisplay:10.37,2013-07-19 04:42:00,
2013-07-18 23:48:00,77.6,65.3,30.04,SSE,168,0.0,0.0,66,0.00,FEW,FEW,0.00,WeatherDisplay:10.37,2013-07-19 04:48:00,
2013-07-18 23:54:00,77.4,65.5,30.05,SSE,160,0.0,0.0,67,0.00,FEW,FEW,0.00,WeatherDisplay:10.37,2013-07-19 04:54:00,